QPF
0.00 0.00 0.00 0.00 0.00 0.00 0.00 0.00 0.00 0.00 0.00 0.00 0.00 0.00 0.00 0.00 0.00 0.00 0.00 0.00 0.01 0.01 0.00 0.00 0.00 0.00 0.00 0.00 0.00 0.00 0.00 0.00 0.00 0.00 0.00 0.00 0.00 0.00 0.00 0.00 0.00 0.00 0.00 0.00
0.00 0.00 0.01 0.00 0.00 0.00 0.00 0.00 0.00 0.00 0.00 0.00 0.00 0.00 0.00 0.00 0.00 0.00 0.00 0.01 0.02 0.01 0.00 0.00 0.00 0.00 0.00 0.00 0.00 0.00 0.00 0.00 0.00 0.00 0.00 0.00 0.00 0.00 0.00 0.00 0.00 0.00 0.00 0.00
0.00 0.00 0.01 0.01 0.00 0.00 0.00 0.00 0.00 0.00 0.00 0.00 0.00 0.00 0.00 0.00 0.00 0.00 0.00 0.00 0.00 0.01 0.01 0.01 0.00 0.00 0.00 0.00 0.00 0.00 0.00 0.00 0.00 0.00 0.00 0.00 0.00 0.00 0.00 0.00 0.00 0.00 0.00 0.00
0.00 0.01 0.01 0.01 0.00 0.00 0.00 0.00 0.00 0.00 0.00 0.00 0.00 0.00 0.00 0.00 0.00 0.00 0.00 0.00 0.00 0.01 0.01 0.01 0.01 0.00 0.00 0.00 0.00 0.00 0.00 0.00 0.00 0.00 0.00 0.00 0.00 0.00 0.00 0.00 0.00 0.00 0.00 0.00
0.01 0.01 0.01 0.03 0.00 0.00 0.00 0.00 0.00 0.00 0.00 0.00 0.00 0.00 0.00 0.00 0.00 0.00 0.00 0.00 0.00 0.00 0.00 0.01 0.00 0.00 0.01 0.01 0.00 0.00 0.00 0.00 0.00 0.00 0.00 0.00 0.00 0.00 0.00 0.00 0.00 0.00 0.00 0.00
0.01 0.01 0.02 0.03 0.03 0.01 0.00 0.00 0.00 0.00 0.00 0.00 0.00 0.00 0.00 0.00 0.00 0.00 0.00 0.00 0.00 0.00 0.00 0.00 0.00 0.00 0.00 0.00 0.00 0.01 0.00 0.00 0.00 0.00 0.00 0.00 0.00 0.00 0.00 0.00 0.00 0.00 0.00 0.00
0.02 0.02 0.03 0.04 0.07 0.03 0.00 0.00 0.00 0.00 0.01 0.00 0.00 0.00 0.00 0.00 0.00 0.00 0.00 0.00 0.00 0.00 0.00 0.00 0.01 0.02 0.02 0.02 0.01 0.01 0.01 0.01 0.02 0.01 0.00 0.01 0.00 0.00 0.00 0.00 0.00 0.00 0.00 0.00
0.02 0.02 0.03 0.04 0.05 0.06 0.02 0.02 0.01 0.02 0.02 0.00 0.00 0.00 0.00 0.00 0.00 0.00 0.00 0.00 0.00 0.00 0.00 0.00 0.00 0.01 0.03 0.02 0.05 0.06 0.02 0.02 0.02 0.01 0.00 0.00 0.00 0.00 0.00 0.00 0.00 0.00 0.00 0.00
0.01 0.01 0.02 0.04 0.08 0.17 0.14 0.05 0.05 0.07 0.04 0.01 0.00 0.00 0.00 0.00 0.00 0.00 0.00 0.00 0.00 0.00 0.00 0.00 0.00 0.00 0.00 0.01 0.01 0.07 0.12 0.08 0.06 0.02 0.02 0.00 0.00 0.00 0.00 0.00 0.00 0.00 0.00 0.00
0.00 0.00 0.01 0.02 0.04 0.08 0.16 0.06 0.06 0.16 0.16 0.03 0.00 0.00 0.00 0.00 0.00 0.00 0.00 0.00 0.00 0.00 0.00 0.00 0.00 0.00 0.00 0.00 0.00 0.02 0.07 0.10 0.09 0.04 0.06 0.01 0.00 0.00 0.00 0.00 0.00 0.00 0.00 0.00
0.00 0.00 0.00 0.00 0.00 0.02 0.14 0.16 0.13 0.20 0.22 0.12 0.02 0.00 0.01 0.00 0.00 0.01 0.00 0.00 0.00 0.00 0.00 0.00 0.00 0.00 0.00 0.00 0.00 0.00 0.00 0.00 0.01 0.02 0.04 0.01 0.00 0.00 0.00 0.00 0.00 0.00 0.00 0.00
0.00 0.00 0.00 0.00 0.00 0.00 0.01 0.07 0.10 0.18 0.27 0.26 0.10 0.04 0.02 0.01 0.01 0.02 0.03 0.00 0.00 0.00 0.00 0.00 0.00 0.00 0.00 0.00 0.00 0.00 0.00 0.00 0.00 0.00 0.00 0.00 0.00 0.00 0.00 0.00 0.00 0.00 0.00 0.00
0.00 0.00 0.00 0.00 0.00 0.00 0.00 0.01 0.03 0.13 0.24 0.16 0.08 0.02 0.00 0.00 0.01 0.01 0.07 0.02 0.00 0.01 0.00 0.00 0.00 0.00 0.00 0.00 0.00 0.00 0.00 0.00 0.00 0.00 0.00 0.00 0.00 0.00 0.00 0.00 0.00 0.00 0.00 0.00
0.01 0.00 0.00 0.00 0.01 0.01 0.01 0.00 0.00 0.01 0.07 0.09 0.06 0.03 0.03 0.03 0.04 0.06 0.03 0.01 0.01 0.01 0.01 0.02 0.02 0.01 0.00 0.00 0.00 0.00 0.00 0.00 0.00 0.00 0.00 0.00 0.00 0.00 0.00 0.00 0.00 0.00 0.00 0.00
0.01 0.01 0.00 0.00 0.01 0.01 0.01 0.00 0.00 0.00 0.02 0.06 0.05 0.03 0.04 0.05 0.08 0.09 0.06 0.03 0.02 0.02 0.02 0.03 0.02 0.00 0.02 0.01 0.00 0.00 0.00 0.00 0.00 0.00 0.00 0.00 0.00 0.00 0.00 0.00 0.00 0.00 0.00 0.00
0.01 0.01 0.01 0.01 0.01 0.02 0.00 0.00 0.01 0.02 0.05 0.09 0.04 0.01 0.00 0.02 0.03 0.04 0.07 0.08 0.08 0.11 0.08 0.04 0.01 0.00 0.02 0.04 0.00 0.00 0.00 0.00 0.00 0.00 0.00 0.00 0.00 0.00 0.00 0.00 0.00 0.00 0.00 0.00
0.01 0.01 0.02 0.01 0.00 0.00 0.00 0.00 0.00 0.00 0.04 0.15 0.07 0.03 0.01 0.01 0.02 0.05 0.06 0.07 0.11 0.12 0.11 0.06 0.02 0.00 0.03 0.03 0.00 0.00 0.00 0.00 0.00 0.00 0.00 0.00 0.00 0.00 0.00 0.00 0.00 0.00 0.00 0.00
0.02 0.02 0.01 0.00 0.00 0.00 0.00 0.00 0.01 0.01 0.01 0.04 0.05 0.01 0.00 0.00 0.01 0.04 0.07 0.11 0.13 0.14 0.12 0.06 0.01 0.02 0.04 0.01 0.00 0.00 0.00 0.00 0.00 0.00 0.00 0.00 0.00 0.00 0.00 0.00 0.00 0.00 0.00 0.00
0.03 0.01 0.00 0.00 0.00 0.00 0.00 0.01 0.02 0.03 0.03 0.04 0.02 0.00 0.00 0.00 0.01 0.03 0.05 0.07 0.08 0.09 0.07 0.03 0.03 0.03 0.01 0.00 0.00 0.00 0.00 0.00 0.00 0.00 0.00 0.00 0.00 0.00 0.00 0.00 0.00 0.00 0.00 0.00
0.05 0.02 0.00 0.00 0.00 0.00 0.00 0.00 0.02 0.08 0.11 0.07 0.03 0.00 0.00 0.00 0.00 0.01 0.02 0.02 0.02 0.03 0.01 0.02 0.03 0.01 0.00 0.00 0.00 0.00 0.00 0.00 0.00 0.00 0.00 0.00 0.00 0.00 0.00 0.00 0.00 0.00 0.00 0.00
0.03 0.03 0.00 0.00 0.00 0.00 0.00 0.00 0.00 0.00 0.00 0.01 0.01 0.00 0.01 0.01 0.02 0.03 0.06 0.05 0.03 0.02 0.01 0.01 0.00 0.00 0.00 0.00 0.00 0.00 0.00 0.00 0.00 0.00 0.00 0.00 0.00 0.00 0.00 0.00 0.00 0.00 0.00 0.00
0.03 0.01 0.00 0.00 0.00 0.00 0.00 0.00 0.00 0.00 0.00 0.00 0.00 0.01 0.02 0.03 0.04 0.05 0.06 0.04 0.04 0.03 0.01 0.01 0.00 0.00 0.00 0.00 0.00 0.00 0.00 0.00 0.00 0.00 0.00 0.00 0.00 0.00 0.00 0.00 0.00 0.00 0.00 0.00
0.10 0.04 0.00 0.00 0.00 0.00 0.00 0.00 0.00 0.00 0.00 0.00 0.01 0.01 0.02 0.02 0.03 0.04 0.03 0.04 0.03 0.02 0.01 0.00 0.00 0.00 0.00 0.00 0.00 0.00 0.00 0.00 0.00 0.00 0.00 0.00 0.00 0.00 0.00 0.00 0.00 0.00 0.00 0.00
0.09 0.01 0.00 0.00 0.00 0.00 0.00 0.00 0.00 0.00 0.00 0.00 0.01 0.01 0.01 0.01 0.02 0.03 0.02 0.02 0.01 0.01 0.00 0.00 0.00 0.00 0.01 0.00 0.00 0.00 0.00 0.00 0.00 0.00 0.00 0.00 0.00 0.00 0.00 0.00 0.00 0.00 0.00 0.00
0.04 0.00 0.00 0.00 0.00 0.00 0.00 0.00 0.00 0.00 0.00 0.00 0.00 0.00 0.00 0.00 0.01 0.01 0.01 0.02 0.01 0.00 0.00 0.01 0.02 0.02 0.02 0.01 0.01 0.02 0.02 0.02 0.02 0.01 0.00 0.00 0.00 0.00 0.00 0.00 0.00 0.00 0.00 0.00
0.05 0.02 0.00 0.00 0.00 0.00 0.00 0.00 0.00 0.00 0.00 0.00 0.00 0.00 0.00 0.00 0.01 0.00 0.00 0.01 0.00 0.01 0.03 0.04 0.03 0.01 0.01 0.00 0.01 0.01 0.02 0.02 0.02 0.02 0.02 0.02 0.01 0.01 0.01 0.00 0.00 0.00 0.00 0.00
0.04 0.01 0.00 0.00 0.02 0.01 0.00 0.00 0.00 0.00 0.00 0.00 0.00 0.00 0.00 0.00 0.00 0.00 0.00 0.01 0.01 0.03 0.03 0.02 0.01 0.01 0.00 0.00 0.00 0.00 0.01 0.01 0.02 0.03 0.03 0.04 0.04 0.03 0.01 0.01 0.00 0.00 0.00 0.00
MSLP
1018.47 1018.35 1018.06 1017.73 1017.46 1017.04 1016.79 1017.33 1017.94 1017.83 1017.72 1018.49 1018.56 1017.83 1016.82 1016.55 1016.41 1016.34 1016.51 1016.53 1016.34 1017.25 1017.38 1016.95 1016.10 1015.23 1014.59 1013.97 1013.79 1013.49 1012.52 1011.90 1010.74 1009.34 1008.23 1008.20 1008.41 1008.87 1009.22 1009.98 1010.30 1009.28 1008.70 1006.78
1018.05 1017.94 1017.80 1017.61 1017.47 1017.31 1017.79 1018.01 1018.24 1018.24 1017.96 1018.96 1019.10 1018.03 1017.40 1016.90 1016.66 1016.49 1016.69 1016.59 1016.65 1016.43 1017.25 1017.28 1016.11 1014.98 1014.19 1014.07 1013.82 1013.51 1013.23 1012.44 1011.42 1009.92 1009.05 1008.37 1008.35 1008.57 1008.88 1009.14 1009.28 1009.68 1009.35 1007.71
1017.52 1017.50 1017.39 1017.29 1017.36 1017.40 1017.79 1018.55 1018.98 1019.12 1019.17 1019.23 1019.13 1018.80 1017.91 1017.37 1016.83 1016.75 1016.63 1016.74 1016.63 1016.72 1016.73 1017.19 1016.43 1015.37 1014.42 1014.23 1014.17 1013.80 1013.45 1012.83 1011.94 1010.70 1009.39 1008.79 1008.64 1008.10 1008.13 1008.53 1009.10 1009.02 1008.37 1007.51
1016.79 1016.88 1016.89 1016.96 1017.02 1017.19 1017.79 1018.77 1019.27 1019.55 1019.95 1019.60 1019.79 1019.18 1018.62 1017.76 1017.14 1016.96 1016.92 1017.11 1016.78 1016.37 1016.63 1016.88 1016.54 1015.62 1015.04 1014.59 1014.46 1014.36 1014.11 1013.20 1011.96 1010.71 1009.96 1009.52 1008.88 1008.42 1008.20 1008.11 1007.93 1007.78 1007.31 1007.18
1015.97 1016.12 1016.24 1016.31 1016.59 1017.04 1017.88 1018.59 1019.27 1019.86 1019.60 1019.80 1020.03 1019.40 1018.54 1017.68 1016.92 1016.81 1016.72 1016.95 1016.24 1016.45 1016.45 1015.64 1015.98 1016.03 1015.68 1015.49 1015.35 1015.05 1014.86 1013.87 1012.63 1011.16 1009.85 1009.25 1008.63 1008.17 1008.06 1007.70 1007.35 1006.63 1006.69 1005.81
1015.19 1015.30 1015.45 1015.59 1015.78 1016.30 1017.11 1017.83 1018.05 1018.50 1019.08 1019.95 1020.22 1019.10 1017.64 1016.89 1016.83 1016.21 1016.00 1016.08 1016.58 1016.61 1015.78 1015.56 1015.87 1016.10 1016.22 1016.18 1016.15 1015.83 1015.56 1014.70 1013.54 1011.80 1010.44 1009.57 1008.41 1007.09 1006.77 1006.57 1006.25 1006.11 1006.03 1004.42
1014.59 1014.58 1014.62 1014.79 1015.02 1015.28 1015.96 1016.59 1017.44 1018.23 1018.00 1018.54 1018.62 1017.65 1017.12 1016.64 1016.35 1016.31 1016.15 1016.26 1016.65 1016.43 1016.11 1016.41 1016.81 1016.84 1016.42 1016.42 1016.14 1016.00 1015.66 1015.02 1013.96 1012.42 1011.02 1009.46 1006.93 1006.19 1005.87 1005.81 1005.30 1005.63 1005.40 1005.54
1014.79 1014.29 1014.18 1014.10 1014.07 1014.29 1014.83 1015.42 1016.19 1017.20 1016.89 1016.64 1016.73 1016.59 1016.42 1015.98 1015.83 1016.09 1015.71 1016.09 1016.15 1016.29 1016.47 1017.14 1017.08 1016.89 1016.69 1015.90 1016.01 1015.91 1015.73 1015.30 1014.42 1013.09 1011.63 1009.08 1006.98 1006.54 1006.50 1006.32 1006.05 1006.07 1006.33 1006.64
1015.30 1014.80 1014.52 1014.34 1013.85 1013.07 1013.84 1014.55 1014.59 1016.43 1015.99 1015.40 1014.77 1015.27 1015.65 1015.98 1016.08 1016.35 1016.22 1016.53 1016.58 1016.59 1016.79 1017.36 1017.55 1016.96 1016.20 1016.33 1016.05 1015.90 1015.85 1015.59 1015.04 1013.81 1012.29 1010.27 1008.18 1007.29 1007.04 1006.82 1007.01 1006.90 1007.04 1007.31
1015.18 1014.87 1014.56 1014.31 1014.01 1013.54 1013.55 1013.89 1014.44 1014.44 1015.27 1014.28 1014.16 1014.23 1014.20 1014.55 1015.12 1015.98 1016.64 1016.74 1017.12 1017.02 1017.12 1017.62 1017.28 1016.78 1016.17 1016.21 1016.03 1016.04 1015.95 1015.71 1014.61 1013.79 1012.36 1010.18 1008.47 1007.82 1007.54 1007.80 1008.38 1007.67 1007.80 1008.00
1014.97 1014.69 1014.49 1014.28 1013.99 1013.74 1013.54 1013.57 1013.73 1014.05 1013.79 1013.14 1012.82 1012.73 1013.65 1013.55 1013.77 1014.65 1016.11 1016.93 1017.23 1017.33 1017.31 1017.11 1016.48 1016.38 1015.91 1015.90 1015.54 1015.31 1015.08 1014.92 1014.38 1013.84 1012.73 1010.85 1008.57 1008.76 1008.75 1008.57 1008.30 1008.28 1008.36 1008.47
1014.59 1014.29 1014.09 1013.96 1013.81 1013.53 1013.16 1013.65 1013.88 1013.93 1014.27 1013.19 1012.92 1012.27 1011.87 1011.11 1011.39 1013.13 1015.04 1015.17 1015.11 1014.91 1015.43 1015.71 1015.67 1016.10 1016.28 1015.65 1015.71 1015.27 1014.74 1013.38 1013.06 1012.34 1010.59 1009.21 1008.88 1008.96 1008.77 1008.75 1008.85 1008.67 1008.62 1008.58
1014.01 1013.78 1013.54 1013.34 1013.16 1013.11 1013.12 1013.44 1013.99 1014.31 1013.97 1012.67 1012.44 1011.69 1011.09 1011.08 1011.55 1011.40 1012.65 1013.93 1013.91 1014.10 1014.04 1014.58 1015.12 1015.29 1015.27 1015.57 1015.04 1014.29 1013.57 1012.98 1012.98 1011.97 1009.77 1009.36 1009.37 1009.22 1009.37 1009.31 1009.21 1009.01 1008.96 1009.01
1013.49 1013.27 1013.08 1012.91 1012.75 1012.59 1012.55 1013.10 1013.25 1013.68 1013.67 1012.99 1011.22 1011.20 1011.46 1011.70 1011.62 1011.89 1011.91 1012.08 1013.28 1013.56 1013.91 1014.34 1014.68 1014.89 1014.26 1014.86 1014.63 1014.18 1012.80 1012.64 1011.85 1011.52 1010.19 1009.83 1009.63 1009.42 1009.39 1009.48 1009.49 1009.50 1009.53 1009.49
1013.09 1012.85 1012.56 1012.48 1012.34 1012.11 1012.14 1012.32 1012.45 1012.15 1012.78 1012.07 1011.68 1011.83 1012.32 1012.30 1011.97 1011.48 1011.70 1012.15 1012.89 1013.49 1014.11 1013.94 1014.24 1014.36 1014.71 1015.35 1015.25 1013.38 1012.73 1011.75 1011.70 1010.21 1009.70 1009.94 1009.77 1009.77 1009.85 1010.13 1010.30 1010.28 1010.39 1010.15
1012.54 1012.32 1012.09 1011.88 1011.87 1011.82 1012.38 1012.53 1012.12 1011.78 1012.18 1012.16 1011.82 1012.80 1012.71 1012.44 1012.00 1011.78 1011.75 1011.92 1012.43 1012.51 1013.06 1013.64 1013.81 1013.87 1014.21 1015.05 1014.98 1012.86 1012.15 1011.36 1011.21 1011.24 1011.11 1010.81 1010.87 1010.80 1010.97 1011.30 1011.31 1011.27 1011.39 1011.32
1011.84 1011.67 1011.49 1011.33 1011.47 1011.96 1012.14 1012.13 1012.00 1011.79 1012.20 1012.30 1012.09 1012.71 1013.17 1012.99 1012.68 1012.50 1012.35 1012.30 1012.50 1012.51 1012.95 1013.41 1013.76 1014.17 1014.27 1014.90 1014.71 1014.02 1013.64 1013.43 1013.11 1012.62 1012.43 1012.26 1012.18 1012.27 1012.23 1012.35 1012.38 1012.41 1012.39 1012.21
1011.09 1010.93 1010.89 1011.08 1011.38 1011.47 1011.59 1011.82 1011.61 1011.62 1011.97 1012.29 1012.47 1013.10 1013.71 1013.46 1013.21 1012.99 1012.66 1012.59 1012.63 1012.63 1012.79 1013.54 1014.00 1014.57 1015.11 1015.51 1014.89 1015.37 1015.48 1014.83 1014.55 1014.52 1014.28 1013.93 1013.71 1013.61 1013.61 1013.72 1013.46 1013.20 1012.94 1012.81
1010.54 1010.47 1010.84 1011.39 1011.85 1011.94 1011.92 1011.82 1011.72 1011.64 1012.06 1012.10 1012.76 1013.73 1014.13 1014.04 1013.85 1013.51 1013.23 1012.84 1012.78 1012.84 1012.86 1013.31 1014.04 1015.00 1015.95 1016.50 1017.24 1017.69 1018.24 1018.57 1017.70 1016.39 1015.73 1015.26 1015.19 1015.18 1014.80 1014.67 1014.40 1014.46 1014.04 1013.72
1010.14 1010.71 1011.24 1011.86 1012.09 1011.87 1012.18 1012.04 1012.14 1011.84 1011.71 1012.08 1012.88 1013.78 1014.36 1014.30 1014.06 1013.85 1013.69 1013.33 1013.06 1013.18 1013.26 1013.54 1014.48 1015.45 1016.96 1018.04 1018.72 1019.41 1019.42 1019.29 1019.01 1018.23 1017.18 1016.85 1016.74 1016.69 1016.23 1015.84 1015.53 1015.27 1014.99 1014.58
1010.51 1011.14 1011.95 1012.28 1012.03 1012.37 1012.97 1013.48 1013.51 1013.04 1012.83 1012.80 1013.49 1013.73 1013.98 1014.15 1013.93 1013.65 1013.50 1013.33 1013.40 1013.57 1013.90 1014.49 1015.53 1016.69 1017.77 1018.59 1019.10 1019.35 1019.48 1019.62 1019.49 1019.28 1018.68 1018.55 1018.29 1017.90 1017.28 1016.49 1015.96 1015.60 1015.36 1015.10
1010.23 1011.17 1011.89 1012.27 1013.00 1013.88 1014.57 1014.89 1014.44 1014.03 1013.75 1013.81 1014.06 1014.08 1013.90 1013.85 1013.69 1013.47 1013.57 1013.46 1013.75 1014.10 1014.64 1015.59 1016.57 1017.84 1018.67 1019.28 1019.65 1019.68 1019.60 1019.79 1019.72 1019.32 1018.84 1018.63 1018.43 1018.14 1017.79 1017.32 1016.68 1016.14 1015.76 1015.38
1010.89 1011.74 1012.59 1012.98 1014.37 1015.03 1015.35 1015.49 1015.03 1014.61 1013.97 1014.17 1014.37 1014.35 1014.12 1014.03 1013.85 1013.75 1013.78 1013.97 1014.38 1014.61 1015.51 1016.42 1017.49 1018.47 1019.14 1019.71 1019.90 1019.69 1019.70 1019.93 1019.82 1019.50 1019.15 1018.91 1018.76 1018.24 1017.89 1017.65 1017.07 1016.48 1016.02 1015.75
1010.97 1012.04 1013.03 1013.81 1014.43 1014.43 1014.37 1014.35 1014.30 1014.11 1014.09 1014.44 1014.59 1014.68 1014.69 1014.26 1014.12 1014.11 1014.29 1014.84 1015.05 1015.84 1016.66 1017.42 1018.34 1019.03 1019.48 1019.72 1019.84 1019.92 1020.19 1020.27 1020.15 1019.82 1019.49 1019.36 1019.19 1018.95 1018.53 1018.02 1017.63 1017.00 1016.53 1016.15
1011.17 1011.46 1012.55 1013.28 1012.70 1013.09 1013.60 1013.81 1014.18 1014.27 1014.18 1014.61 1015.08 1015.23 1015.05 1014.91 1014.99 1015.06 1015.36 1015.87 1016.22 1016.80 1017.44 1018.28 1019.07 1019.58 1019.89 1020.02 1020.11 1020.24 1020.31 1020.32 1020.14 1019.77 1019.55 1019.42 1019.26 1019.20 1019.07 1018.69 1018.23 1017.70 1017.17 1016.73
1011.09 1011.57 1012.09 1012.21 1012.74 1013.15 1013.82 1014.10 1014.54 1014.38 1014.79 1015.03 1015.45 1015.98 1016.06 1016.01 1015.91 1016.34 1016.46 1017.06 1017.51 1018.21 1018.87 1019.67 1020.03 1020.46 1020.70 1020.71 1020.60 1020.59 1020.58 1020.51 1020.34 1020.14 1019.99 1019.83 1019.60 1019.53 1019.50 1019.09 1018.73 1018.34 1017.88 1017.60
1011.12 1011.36 1011.43 1011.91 1012.55 1013.19 1013.88 1014.15 1014.36 1014.57 1015.07 1015.95 1016.66 1017.06 1016.91 1017.18 1017.74 1018.19 1018.47 1019.28 1019.88 1020.32 1020.67 1021.11 1021.41 1021.55 1021.51 1021.34 1021.09 1021.02 1020.99 1020.91 1020.80 1020.66 1020.60 1020.51 1020.20 1019.94 1019.73 1019.52 1019.56 1019.27 1019.03 1018.74
Thickness
5528 5525 5523 5522 5522 5521 5520 5511 5503 5500 5496 5476 5459 5466 5493 5492 5482 5477 5475 5474 5470 5458 5461 5464 5465 5474 5480 5492 5492 5497 5503 5503 5517 5532 5547 5545 5541 5542 5542 5535 5544 5532 5541 5579
5524 5521 5519 5516 5515 5513 5507 5492 5496 5493 5491 5466 5454 5483 5488 5483 5477 5474 5470 5472 5471 5466 5460 5460 5469 5483 5488 5486 5482 5481 5490 5500 5500 5518 5535 5546 5548 5544 5544 5536 5537 5539 5538 5565
5522 5518 5516 5513 5509 5506 5500 5490 5479 5480 5476 5470 5477 5489 5488 5484 5475 5473 5469 5466 5467 5463 5454 5443 5455 5471 5482 5480 5480 5489 5485 5488 5503 5522 5537 5540 5539 5545 5544 5545 5532 5536 5546 5568
5522 5516 5513 5509 5505 5501 5493 5473 5474 5465 5463 5461 5450 5464 5451 5464 5466 5464 5461 5457 5455 5459 5454 5449 5446 5460 5464 5472 5470 5470 5470 5484 5498 5507 5512 5519 5531 5538 5535 5542 5553 5553 5560 5560
5521 5515 5510 5506 5501 5496 5485 5471 5466 5450 5440 5434 5446 5448 5445 5458 5458 5455 5447 5442 5452 5441 5446 5461 5446 5442 5449 5447 5449 5453 5445 5467 5480 5493 5513 5512 5521 5525 5525 5539 5544 5561 5553 5566
5521 5516 5511 5507 5502 5495 5485 5476 5473 5471 5468 5431 5434 5444 5459 5457 5457 5456 5461 5450 5440 5436 5445 5445 5440 5435 5430 5429 5428 5433 5433 5453 5463 5469 5494 5494 5498 5524 5539 5544 5545 5557 5550 5590
5519 5516 5511 5505 5499 5494 5484 5475 5466 5459 5467 5452 5436 5443 5449 5455 5454 5444 5447 5438 5431 5433 5428 5421 5414 5412 5413 5413 5416 5417 5424 5437 5451 5462 5477 5482 5534 5531 5537 5544 5558 5540 5552 5560
5511 5510 5505 5501 5496 5490 5481 5468 5459 5446 5453 5454 5446 5428 5437 5438 5437 5434 5436 5426 5422 5416 5417 5401 5391 5403 5414 5414 5409 5407 5408 5416 5430 5451 5464 5480 5520 5519 5522 5525 5537 5524 5527 5524
5496 5495 5492 5489 5486 5484 5474 5460 5451 5429 5434 5444 5448 5424 5407 5401 5386 5392 5403 5399 5398 5401 5403 5388 5382 5408 5423 5408 5404 5402 5398 5398 5411 5414 5441 5434 5488 5492 5488 5497 5504 5498 5499 5501
5487 5483 5480 5476 5472 5467 5460 5452 5434 5420 5410 5424 5415 5408 5402 5391 5376 5384 5367 5374 5376 5380 5366 5367 5362 5389 5395 5409 5402 5396 5395 5394 5404 5412 5427 5425 5459 5474 5476 5487 5486 5480 5480 5480
5477 5473 5467 5461 5456 5449 5444 5437 5424 5407 5398 5408 5402 5404 5388 5382 5380 5383 5361 5361 5349 5356 5362 5368 5372 5372 5382 5377 5386 5395 5398 5392 5394 5402 5410 5421 5451 5454 5466 5460 5461 5461 5463 5466
5466 5461 5456 5449 5440 5433 5425 5413 5400 5388 5376 5387 5385 5389 5390 5398 5394 5380 5351 5360 5353 5372 5364 5360 5370 5366 5335 5364 5383 5368 5390 5406 5399 5412 5425 5437 5440 5435 5429 5430 5445 5455 5454 5456
5457 5452 5445 5436 5428 5418 5407 5395 5379 5369 5367 5379 5380 5387 5385 5382 5378 5377 5366 5354 5360 5360 5363 5362 5358 5359 5358 5356 5360 5377 5385 5373 5382 5396 5426 5425 5428 5421 5424 5424 5430 5439 5440 5441
5447 5440 5432 5424 5413 5403 5393 5383 5373 5363 5355 5358 5377 5372 5368 5362 5362 5359 5363 5367 5354 5353 5355 5357 5357 5360 5359 5346 5359 5364 5386 5381 5392 5382 5402 5411 5417 5412 5419 5421 5424 5426 5425 5427
5436 5428 5419 5409 5399 5391 5382 5375 5369 5364 5353 5363 5356 5350 5344 5344 5348 5354 5353 5354 5350 5345 5344 5348 5348 5345 5350 5323 5319 5360 5361 5383 5395 5419 5425 5416 5419 5401 5397 5404 5409 5416 5415 5418
5425 5417 5408 5398 5388 5379 5367 5355 5359 5354 5344 5347 5356 5330 5325 5332 5336 5339 5344 5343 5341 5345 5344 5341 5340 5330 5350 5346 5327 5365 5363 5371 5381 5402 5377 5388 5381 5379 5375 5384 5384 5383 5385 5395
5416 5408 5398 5388 5377 5367 5354 5345 5347 5341 5335 5332 5339 5325 5316 5316 5320 5323 5328 5328 5330 5333 5334 5334 5333 5328 5337 5332 5332 5353 5340 5333 5343 5343 5356 5373 5364 5377 5361 5363 5359 5361 5363 5367
5408 5399 5389 5378 5366 5358 5348 5341 5338 5332 5325 5321 5329 5308 5302 5304 5302 5311 5311 5317 5322 5324 5327 5321 5320 5318 5320 5322 5328 5319 5309 5323 5324 5325 5317 5331 5330 5336 5339 5339 5345 5354 5355 5352
5396 5388 5376 5365 5351 5344 5338 5332 5328 5323 5320 5314 5304 5285 5289 5292 5291 5295 5300 5306 5311 5312 5318 5318 5315 5312 5316 5302 5290 5283 5277 5276 5290 5300 5301 5303 5318 5316 5321 5319 5326 5332 5342 5340
5383 5371 5358 5335 5340 5334 5326 5316 5312 5318 5316 5311 5298 5281 5282 5281 5282 5286 5290 5289 5302 5300 5305 5305 5306 5300 5272 5266 5268 5256 5259 5262 5266 5288 5310 5305 5303 5302 5300 5301 5301 5308 5314 5316
5365 5354 5333 5329 5328 5319 5293 5287 5288 5287 5295 5298 5284 5282 5281 5278 5284 5284 5285 5286 5288 5292 5289 5290 5285 5284 5265 5255 5258 5248 5250 5252 5255 5259 5266 5269 5268 5275 5280 5289 5294 5297 5297 5301
5355 5342 5329 5320 5299 5282 5279 5259 5279 5282 5289 5284 5280 5276 5280 5276 5275 5282 5276 5279 5276 5284 5266 5262 5258 5252 5243 5240 5241 5242 5244 5243 5247 5249 5257 5260 5263 5259 5266 5271 5278 5280 5281 5285
5336 5321 5302 5299 5273 5271 5267 5265 5261 5271 5281 5271 5267 5271 5271 5268 5269 5270 5270 5271 5271 5262 5257 5263 5240 5235 5232 5229 5229 5233 5236 5235 5238 5242 5243 5246 5246 5251 5250 5256 5261 5266 5271 5273
5328 5306 5307 5294 5271 5274 5275 5276 5272 5273 5270 5267 5263 5257 5261 5258 5268 5266 5265 5254 5254 5251 5230 5238 5221 5219 5219 5219 5220 5220 5220 5221 5223 5227 5230 5233 5234 5236 5241 5244 5247 5251 5257 5260
5311 5309 5302 5277 5292 5283 5266 5253 5262 5263 5268 5259 5252 5249 5254 5250 5249 5244 5246 5245 5248 5236 5239 5229 5217 5211 5210 5211 5211 5211 5213 5214 5216 5220 5223 5224 5225 5225 5227 5229 5232 5237 5242 5246
5304 5291 5283 5288 5292 5289 5266 5261 5263 5256 5252 5249 5243 5226 5232 5241 5243 5240 5243 5243 5236 5230 5216 5205 5203 5197 5195 5196 5198 5199 5199 5201 5204 5207 5210 5211 5213 5214 5214 5217 5220 5223 5227 5229
5301 5300 5292 5288 5288 5285 5260 5249 5247 5247 5252 5237 5213 5233 5231 5223 5209 5219 5212 5213 5200 5191 5188 5184 5182 5180 5182 5184 5188 5189 5188 5189 5191 5192 5193 5195 5198 5200 5202 5203 5203 5206 5208 5211